Retour au catalogue

KUIPER-00521

ActifCommunicationsLEO
NORAD 68891·PAYLOAD·🇺🇸 United States

Lancé Apr 28, 2026 depuis Cape Canaveral Space Force Station

Loading…

Prochains Passages (prochaines 24 heures)

TLE

FraisSource: CelesTrak SupGP

Époque: Sep 14, 2026, 18:24 UTC

1 68891C 26095AD  26257.76730324 -.00010189  00000+0 -13337-2 0  2574
2 68891  51.9019 195.8064 0000795  91.6721 151.2653 14.79943609    15

Suivez KUIPER-00521 en temps réel avec AllMySat

Download on the App Store